When you browse on this site, cookies collect data to enhance your experience and personalize the content and advertising you see.
Visit our Privacy Policy to learn more. By continuing to use the site, you agree to this use of cookies and data.
  • In France
  • List of Countries
  • For 7 days
  • Water Temperature
  • Satellite Maps
  • Weather Map
  • Weather Widgets
  • user-avatar
    Login

    Hourly Weather Vina del Mar

    Today, 18 July, Thursday

    Time Temperature Precipitation Wind Pressure Humidity
    00:00 +10°C° 0 mm 2 mps 748 mmHg 94%
    01:00 +9°C° 0 mm 3 mps 748 mmHg 93%
    02:00 +9°C° 0 mm 3 mps 748 mmHg 93%
    03:00 +9°C° 0 mm 3 mps 748 mmHg 93%
    04:00 +8°C° 0 mm 3 mps 747 mmHg 93%
    05:00 +9°C° 0 mm 3 mps 748 mmHg 93%
    06:00 +9°C° 0 mm 3 mps 748 mmHg 93%
    07:00 +9°C° 0 mm 3 mps 749 mmHg 92%
    08:00 +11°C° 0 mm 3 mps 749 mmHg 84%
    09:00 +13°C° 0 mm 3 mps 749 mmHg 76%
    10:00 +16°C° 0 mm 3 mps 749 mmHg 68%
    11:00 +17°C° 0 mm 4 mps 748 mmHg 65%
    12:00 +17°C° 0 mm 5 mps 748 mmHg 61%
    13:00 +19°C° 0 mm 5 mps 748 mmHg 57%
    14:00 +17°C° 0 mm 5 mps 748 mmHg 61%
    15:00 +16°C° 0 mm 5 mps 748 mmHg 65%
    16:00 +15°C° 0 mm 5 mps 748 mmHg 70%
    17:00 +13°C° 0 mm 5 mps 748 mmHg 75%
    18:00 +12°C° 0 mm 4 mps 748 mmHg 81%
    19:00 +10°C° 0 mm 4 mps 748 mmHg 86%
    20:00 +10°C° 0 mm 4 mps 748 mmHg 86%
    21:00 +8°C° 0 mm 4 mps 748 mmHg 86%
    22:00 +8°C° 0 mm 4 mps 748 mmHg 85%
    23:00 +8°C° 0 mm 4 mps 747 mmHg 86%

    Tomorrow, 19 July, Friday

    Time Temperature Precipitation Wind Pressure Humidity
    00:00 +9°C° 0 mm 3 mps 747 mmHg 86%
    01:00 +8°C° 0 mm 3 mps 747 mmHg 86%
    02:00 +8°C° 0 mm 3 mps 747 mmHg 85%
    03:00 +8°C° 0 mm 3 mps 747 mmHg 85%
    04:00 +9°C° 0 mm 3 mps 746 mmHg 84%
    05:00 +9°C° 0 mm 3 mps 746 mmHg 83%
    06:00 +9°C° 0 mm 3 mps 746 mmHg 82%
    07:00 +9°C° 0 mm 3 mps 746 mmHg 81%
    08:00 +11°C° 0 mm 3 mps 747 mmHg 72%
    09:00 +14°C° 0 mm 3 mps 747 mmHg 63%
    10:00 +18°C° 0 mm 4 mps 747 mmHg 54%
    11:00 +18°C° 0 mm 4 mps 746 mmHg 53%
    12:00 +19°C° 0 mm 5 mps 746 mmHg 52%
    13:00 +19°C° 0 mm 6 mps 746 mmHg 51%
    14:00 +17°C° 0 mm 6 mps 745 mmHg 54%
    15:00 +16°C° 0 mm 6 mps 745 mmHg 56%
    16:00 +15°C° 0 mm 6 mps 745 mmHg 58%
    17:00 +13°C° 0 mm 5 mps 745 mmHg 65%
    18:00 +10°C° 0 mm 5 mps 745 mmHg 71%
    19:00 +8°C° 0 mm 5 mps 745 mmHg 78%
    20:00 +8°C° 0 mm 4 mps 745 mmHg 76%
    21:00 +8°C° 0 mm 4 mps 745 mmHg 74%
    22:00 +9°C° 0 mm 3 mps 744 mmHg 72%
    23:00 +10°C° 0 mm 3 mps 744 mmHg 72%

    Day after tomorrow, 20 July, Saturday

    Time Temperature Precipitation Wind Pressure Humidity
    00:00 +10°C° 0 mm 3 mps 743 mmHg 71%
    01:00 +10°C° 0 mm 3 mps 743 mmHg 70%
    02:00 +9°C° 0 mm 3 mps 743 mmHg 72%
    03:00 +9°C° 0 mm 3 mps 742 mmHg 73%
    04:00 +9°C° 0 mm 3 mps 742 mmHg 75%
    05:00 +9°C° 0 mm 3 mps 742 mmHg 76%
    06:00 +8°C° 0 mm 2 mps 742 mmHg 77%
    07:00 +8°C° 0 mm 2 mps 742 mmHg 79%
    08:00 +10°C° 0 mm 2 mps 742 mmHg 71%
    09:00 +13°C° 0 mm 2 mps 743 mmHg 63%
    10:00 +15°C° 0 mm 2 mps 743 mmHg 54%
    11:00 +16°C° 0 mm 2 mps 743 mmHg 51%
    12:00 +16°C° 0 mm 2 mps 742 mmHg 48%
    13:00 +17°C° 0 mm 3 mps 742 mmHg 44%
    14:00 +16°C° 0 mm 2 mps 742 mmHg 48%
    15:00 +15°C° 0 mm 2 mps 743 mmHg 52%
    16:00 +15°C° 0 mm 2 mps 743 mmHg 56%
    17:00 +13°C° 0 mm 2 mps 743 mmHg 61%
    18:00 +12°C° 0 mm 1 mps 743 mmHg 66%
    19:00 +10°C° 0 mm 0 mps 743 mmHg 71%
    20:00 +11°C° 0 mm 1 mps 743 mmHg 71%
    21:00 +11°C° 0 mm 1 mps 743 mmHg 72%
    22:00 +11°C° 0 mm 1 mps 744 mmHg 73%
    23:00 +11°C° 0 mm 1 mps 744 mmHg 73%

    21 July, Sunday

    Time Temperature Precipitation Wind Pressure Humidity
    00:00 +10°C° 0 mm 2 mps 744 mmHg 74%
    01:00 +9°C° 0 mm 2 mps 744 mmHg 75%
    02:00 +10°C° 0.9 mm 2 mps 744 mmHg 77%
    03:00 +11°C° 0.9 mm 1 mps 744 mmHg 79%
    04:00 +11°C° 0.9 mm 1 mps 744 mmHg 81%
    05:00 +9°C° 1.6 mm 2 mps 744 mmHg 85%
    06:00 +9°C° 1.6 mm 2 mps 745 mmHg 88%
    07:00 +9°C° 1.6 mm 3 mps 746 mmHg 92%
    08:00 +9°C° 0.4 mm 3 mps 746 mmHg 90%
    09:00 +9°C° 0.4 mm 3 mps 746 mmHg 87%
    10:00 +10°C° 0.4 mm 3 mps 747 mmHg 85%
    11:00 +10°C° 0 mm 4 mps 746 mmHg 81%
    12:00 +9°C° 0 mm 5 mps 746 mmHg 76%
    13:00 +9°C° 0 mm 6 mps 746 mmHg 71%
    14:00 +9°C° 0 mm 5 mps 746 mmHg 71%
    15:00 +9°C° 0 mm 5 mps 747 mmHg 70%
    16:00 +8°C° 0 mm 5 mps 747 mmHg 69%
    17:00 +7°C° 0 mm 5 mps 747 mmHg 73%
    18:00 +6°C° 0 mm 5 mps 748 mmHg 77%
    19:00 +5°C° 0 mm 5 mps 748 mmHg 82%
    20:00 +5°C° 0 mm 5 mps 748 mmHg 81%
    21:00 +3°C° 0 mm 5 mps 749 mmHg 80%
    22:00 +3°C° 0 mm 5 mps 749 mmHg 79%
    23:00 +3°C° 0 mm 5 mps 749 mmHg 81%

    22 July, Monday

    Time Temperature Precipitation Wind Pressure Humidity
    00:00 +2°C° 0 mm 5 mps 748 mmHg 82%
    01:00 +3°C° 0 mm 4 mps 748 mmHg 84%
    02:00 +3°C° 0 mm 4 mps 748 mmHg 84%
    03:00 +3°C° 0 mm 4 mps 748 mmHg 84%
    04:00 +3°C° 0 mm 4 mps 747 mmHg 85%
    05:00 +1°C° 0 mm 4 mps 748 mmHg 85%
    06:00 +1°C° 0 mm 5 mps 748 mmHg 85%
    07:00 +1°C° 0 mm 5 mps 748 mmHg 85%
    08:00 +3°C° 0 mm 5 mps 748 mmHg 76%
    09:00 +5°C° 0 mm 6 mps 748 mmHg 67%
    10:00 +9°C° 0 mm 6 mps 748 mmHg 58%
    11:00 +9°C° 0 mm 7 mps 748 mmHg 54%
    12:00 +10°C° 0 mm 7 mps 747 mmHg 50%
    13:00 +11°C° 0 mm 8 mps 747 mmHg 47%
    14:00 +10°C° 0 mm 8 mps 747 mmHg 49%
    15:00 +9°C° 0 mm 8 mps 747 mmHg 51%
    16:00 +9°C° 0 mm 8 mps 748 mmHg 53%
    17:00 +6°C° 0 mm 8 mps 748 mmHg 58%
    18:00 +5°C° 0 mm 7 mps 748 mmHg 62%
    19:00 +3°C° 0 mm 7 mps 749 mmHg 67%
    20:00 +3°C° 0 mm 6 mps 749 mmHg 70%
    21:00 +2°C° 0 mm 6 mps 749 mmHg 73%
    22:00 +2°C° 0 mm 5 mps 749 mmHg 76%
    23:00 +2°C° 0 mm 5 mps 749 mmHg 76%

    23 July, Tuesday

    Time Temperature Precipitation Wind Pressure Humidity
    00:00 +1°C° 0 mm 5 mps 749 mmHg 77%
    01:00 +1°C° 0 mm 4 mps 749 mmHg 78%
    02:00 +1°C° 0 mm 4 mps 750 mmHg 78%
    03:00 +1°C° 0 mm 4 mps 750 mmHg 78%
    04:00 0°C° 0 mm 4 mps 750 mmHg 79%
    05:00 0°C° 0 mm 4 mps 750 mmHg 78%
    06:00 +1°C° 0 mm 3 mps 751 mmHg 78%
    07:00 +1°C° 0 mm 3 mps 751 mmHg 78%
    08:00 +4°C° 0 mm 3 mps 751 mmHg 69%
    09:00 +7°C° 0 mm 3 mps 752 mmHg 60%
    10:00 +10°C° 0 mm 3 mps 752 mmHg 50%
    11:00 +11°C° 0 mm 4 mps 751 mmHg 49%
    12:00 +12°C° 0 mm 4 mps 751 mmHg 47%
    13:00 +13°C° 0 mm 4 mps 751 mmHg 45%
    14:00 +12°C° 0 mm 5 mps 751 mmHg 50%
    15:00 +10°C° 0 mm 5 mps 751 mmHg 55%
    16:00 +9°C° 0 mm 5 mps 751 mmHg 61%
    17:00 +8°C° 0 mm 4 mps 752 mmHg 66%
    18:00 +6°C° 0 mm 4 mps 752 mmHg 71%
    19:00 +4°C° 0 mm 3 mps 752 mmHg 76%
    20:00 +4°C° 0 mm 3 mps 752 mmHg 74%
    21:00 +4°C° 0 mm 3 mps 752 mmHg 72%
    22:00 +4°C° 0 mm 3 mps 752 mmHg 70%
    23:00 +4°C° 0 mm 3 mps 751 mmHg 68%
    Show more